Wind_Speed
84 85 86 86 84 83 83 82 81 80 79 77 75 72 70 69 68 66 64 62 61 59 56 55 56 55 54 53 52 51 50 47 46 45 38 39 47 47 44 43 43 42 44 43 38 36 39 43 44 41 43 44 42 39 37 37 38 38 37 35 34 33 32 32 33 32 28 26 26 24 23 22 21 20 18 17 15 13 12 10 9 7 6 5 5 5 4 4
84 86 88 89 88 87 85 84 83 81 80 79 77 73 71 69 69 67 65 63 62 61 59 58 59 59 57 56 54 52 51 48 46 45 39 39 44 45 44 44 44 43 43 43 39 38 39 42 45 43 44 44 43 41 39 39 38 37 36 35 35 34 35 36 34 31 27 26 26 24 23 22 21 20 18 16 15 14 12 11 9 8 7 6 6 5 5 4
87 87 89 90 90 90 88 85 84 81 80 80 78 74 71 69 69 67 65 64 61 60 62 62 62 61 59 58 56 53 51 49 47 44 43 45 45 45 46 46 45 44 43 43 39 39 40 42 44 44 44 45 44 43 41 41 38 37 37 36 37 37 37 36 33 30 27 26 27 25 24 23 21 19 18 17 15 14 13 11 11 9 8 7 7 6 6 5
88 87 88 91 91 90 90 86 83 81 79 79 78 74 71 69 68 67 65 64 62 60 62 63 62 61 60 59 57 54 51 49 46 42 45 48 47 47 48 46 45 44 44 43 41 40 42 43 43 44 44 46 46 45 44 41 38 38 39 38 40 40 38 35 32 31 30 28 28 26 25 24 22 21 19 18 17 15 14 13 12 10 9 8 8 7 7 6
85 85 84 88 91 89 89 86 82 79 77 77 76 73 71 68 66 65 64 63 64 62 61 62 61 60 60 58 57 54 50 49 46 44 47 48 47 49 48 46 45 45 44 43 42 40 44 46 44 45 45 47 47 46 42 39 39 40 40 41 41 40 36 34 33 33 31 29 29 27 26 25 23 22 20 19 18 16 14 13 12 10 10 10 9 8 8 7
82 81 80 82 88 88 86 85 81 78 76 75 73 72 70 66 63 62 61 61 62 61 60 60 59 59 59 58 57 54 51 50 47 47 49 47 47 48 47 46 46 46 45 43 42 40 45 48 47 46 47 47 47 44 40 39 41 40 41 41 39 37 34 34 35 34 32 31 30 28 27 26 25 23 21 21 19 16 15 14 14 12 12 11 9 9 8 7
82 79 77 77 81 85 85 82 79 76 75 73 71 70 69 65 62 60 60 61 61 61 61 60 58 59 59 58 57 53 51 50 48 48 49 47 47 46 45 48 47 47 46 44 43 40 45 50 49 48 47 48 47 43 41 41 41 41 42 42 40 38 36 37 37 35 34 32 31 29 29 27 26 24 23 22 19 17 18 17 16 14 13 11 10 10 9 8
84 79 73 73 75 78 82 81 78 74 73 72 69 69 67 63 61 59 61 62 61 61 60 59 58 58 58 57 55 52 50 49 47 47 49 47 45 41 40 41 42 44 45 44 43 41 45 50 49 48 48 48 47 44 43 43 42 44 45 44 42 39 38 38 38 36 35 33 32 31 30 29 27 25 25 23 19 19 20 18 17 15 14 13 12 10 10 9
85 83 75 75 76 76 76 79 78 73 72 71 68 68 65 62 59 59 61 61 61 61 59 58 57 56 56 55 55 53 49 47 45 46 48 47 44 41 37 35 35 39 42 44 45 42 43 48 49 49 49 48 46 45 43 42 43 45 45 43 41 39 39 39 38 37 35 34 34 33 31 29 28 26 25 22 20 21 20 19 18 17 15 14 12 11 11 10
84 84 78 72 72 75 73 75 77 74 72 70 68 67 64 61 59 58 60 60 60 60 58 58 57 56 56 55 55 53 49 48 45 46 47 46 44 41 38 36 34 34 38 43 45 43 43 47 50 51 50 47 45 44 42 42 45 47 46 42 40 39 40 40 39 38 37 35 34 33 31 30 29 26 25 23 22 23 22 20 20 18 16 14 12 11 11 11
81 84 81 71 64 66 67 71 76 74 73 69 67 67 63 60 59 58 59 59 58 59 57 57 57 55 55 56 55 51 48 48 46 45 47 45 42 40 39 38 35 33 36 39 41 44 46 49 51 52 52 49 46 44 43 44 46 47 45 42 41 41 41 41 41 40 38 35 34 32 31 31 28 26 25 24 24 24 22 21 21 18 16 14 13 12 11 11
81 82 83 81 73 66 63 68 74 74 72 68 67 66 63 60 58 57 59 59 58 58 58 58 57 55 54 56 54 49 48 48 47 47 46 44 42 40 39 39 36 34 35 36 38 42 46 50 51 52 53 51 48 46 45 46 47 46 44 44 44 44 43 43 42 40 38 36 34 33 32 31 27 26 27 26 25 25 23 22 21 18 16 15 14 12 12 12
78 75 77 83 85 77 67 68 73 74 70 68 68 65 62 61 58 56 58 60 59 59 58 58 57 56 55 55 53 49 48 48 48 48 47 45 43 41 40 39 37 37 36 34 35 38 43 49 52 53 54 52 50 49 49 48 48 47 46 46 46 45 45 44 42 41 39 37 35 34 33 30 28 30 29 27 26 25 23 23 21 19 18 16 14 13 13 13
69 66 70 76 81 79 71 70 74 73 70 68 68 65 63 62 57 56 60 61 60 59 59 57 56 56 55 53 51 47 46 47 48 48 47 46 45 43 42 40 38 39 38 36 35 36 40 48 54 56 56 55 53 52 50 50 49 47 48 49 47 46 45 43 43 42 40 38 36 35 33 30 31 32 30 28 27 26 25 24 22 21 19 17 15 14 14 13
64 63 68 70 73 74 71 73 74 72 70 69 68 66 66 64 58 58 62 62 60 59 58 56 55 55 53 51 49 46 45 48 48 48 48 47 46 45 43 41 39 39 40 39 37 35 38 47 55 58 59 57 53 51 49 49 49 49 50 50 47 46 45 43 43 42 40 38 36 35 32 32 34 32 29 29 28 28 27 25 23 22 20 17 15 14 14 14
65 63 67 68 69 72 73 75 74 72 70 70 69 68 68 67 62 61 61 61 61 59 57 56 56 55 52 50 48 46 46 48 48 48 47 46 46 45 44 43 41 40 39 40 40 36 37 45 55 59 60 57 53 50 50 49 49 51 51 49 47 46 45 43 42 42 40 37 36 35 32 33 34 30 29 29 28 28 28 26 24 22 20 18 16 15 14 15
67 64 68 70 69 71 74 74 73 72 71 71 70 68 69 69 66 64 62 61 61 59 57 55 54 53 52 51 49 46 46 46 46 47 46 46 46 45 44 43 42 41 40 40 41 38 36 43 54 60 60 56 53 52 51 51 51 52 52 49 47 48 46 44 42 41 39 37 36 35 33 33 33 30 30 30 29 28 28 26 25 23 21 19 17 16 15 15
67 66 71 70 69 72 73 73 72 72 72 71 71 68 69 70 67 64 63 62 62 62 60 57 54 54 54 52 47 44 44 44 46 45 45 45 45 44 43 43 42 41 41 41 41 40 39 42 53 61 60 56 54 54 53 52 52 52 51 49 49 49 46 42 40 39 37 36 36 36 34 33 33 31 31 32 30 29 28 27 25 23 22 20 19 17 16 16
65 67 71 69 70 73 72 73 72 72 72 72 72 69 70 73 70 65 64 65 66 65 62 59 56 55 54 51 48 44 43 44 45 45 44 44 44 44 43 42 42 41 41 42 42 41 41 43 51 60 62 58 56 55 53 52 50 50 49 48 48 45 41 39 38 37 37 37 37 37 35 34 34 33 32 33 31 29 29 27 25 24 23 22 20 18 17 17
63 69 71 70 72 73 73 73 72 73 73 73 73 72 73 76 74 70 68 67 63 60 57 56 55 55 53 51 49 45 44 45 46 45 44 43 43 43 42 42 42 41 41 42 42 42 43 44 49 57 61 59 55 54 52 50 49 50 49 48 46 43 40 41 40 38 38 39 39 38 37 35 35 34 33 33 32 29 28 27 25 25 24 23 21 19 18 18
65 71 70 71 73 73 74 73 72 73 72 72 72 71 70 69 70 69 67 64 60 58 57 55 53 55 54 49 45 43 43 45 45 45 44 43 43 42 42 43 42 42 42 42 43 43 44 45 49 56 60 56 52 52 51 49 49 51 50 47 45 43 42 43 42 40 41 41 40 39 38 36 34 33 33 33 32 29 28 28 27 25 25 23 22 21 20 20
67 73 71 74 75 74 74 72 73 73 72 73 70 67 65 63 64 62 61 63 63 62 61 58 55 55 54 48 43 42 44 45 43 43 43 42 43 42 42 43 42 42 41 43 44 44 45 46 51 58 58 53 51 51 50 49 48 48 47 44 43 43 44 43 43 41 41 41 40 39 38 35 33 33 33 33 32 28 28 28 28 27 25 24 23 22 21 21
68 74 73 76 76 75 75 74 74 74 73 72 68 66 64 64 65 61 55 56 61 65 66 63 60 59 55 49 45 43 44 44 42 42 41 40 41 41 41 42 42 41 41 43 44 45 46 48 54 58 57 54 53 51 49 47 46 45 44 44 43 44 45 43 42 41 41 41 40 39 37 35 34 33 32 32 30 28 28 28 28 27 25 24 24 24 23 22
68 74 74 77 76 75 75 75 75 74 72 70 69 68 64 63 64 60 51 46 50 58 61 61 61 60 55 49 45 44 44 43 41 40 39 38 38 39 40 40 41 41 41 41 41 44 46 48 53 57 56 55 52 49 47 44 43 43 44 45 44 45 46 44 42 42 42 42 40 39 38 36 34 33 31 30 30 29 28 28 28 26 25 25 25 25 24 23
67 73 75 76 76 75 76 76 75 73 71 70 70 70 67 64 60 55 50 46 47 52 54 56 58 57 53 48 46 46 45 43 41 40 38 36 36 37 38 38 39 39 39 38 38 43 47 48 52 55 53 51 49 46 45 44 42 41 42 44 43 45 45 43 42 43 42 42 41 40 40 37 34 33 32 31 31 29 28 27 26 26 26 26 25 25 25 25
67 72 74 76 76 76 76 76 74 72 71 70 68 69 68 64 57 50 48 47 49 51 52 54 55 54 52 48 47 47 48 46 43 40 38 37 36 36 37 39 39 38 36 35 37 42 47 49 51 52 50 48 46 45 44 44 42 41 42 42 43 44 44 42 42 43 43 43 42 41 41 39 36 35 33 31 30 29 28 27 26 26 27 27 26 25 26 26
69 73 74 76 76 76 76 74 73 72 70 68 67 66 63 59 53 49 49 51 51 50 50 52 54 54 51 48 47 48 49 46 43 40 39 39 38 37 38 39 39 37 36 36 39 43 47 49 50 50 49 46 47 47 45 44 42 41 42 42 43 43 43 42 43 44 44 44 43 42 41 41 38 35 33 31 30 29 29 27 26 26 27 27 26 27 27 27
70 74 75 75 74 74 73 72 71 69 67 66 65 62 59 55 52 51 53 54 54 51 49 48 51 54 53 50 49 48 47 44 42 41 40 40 40 39 40 39 37 36 36 37 39 41 43 46 47 47 47 47 47 46 44 42 41 42 42 40 40 41 42 42 43 44 45 45 45 42 41 42 40 35 33 32 30 29 28 27 27 26 27 27 26 27 27 27
68 73 75 74 75 74 72 70 67 66 66 65 63 59 56 55 55 56 56 55 55 53 49 47 49 53 54 53 51 49 48 46 44 42 40 41 41 41 41 40 39 38 36 36 38 38 38 42 44 44 46 47 46 44 42 40 40 41 41 39 38 40 42 43 44 45 46 47 47 44 42 43 41 37 34 33 30 27 27 28 28 27 26 26 26 27 28 28
69 73 74 75 75 74 72 69 66 64 65 64 61 58 57 58 60 60 59 57 55 52 50 49 49 52 55 54 52 50 49 49 46 43 42 42 42 41 42 42 41 40 39 38 40 39 38 41 44 46 48 49 47 45 41 39 41 42 41 39 38 40 42 43 45 45 46 48 48 46 44 43 43 40 36 34 30 27 27 29 29 27 27 27 27 28 28 28
70 73 74 74 73 72 71 69 66 64 63 61 60 60 61 62 63 63 60 58 55 53 52 50 49 52 54 54 53 52 51 50 48 46 45 44 44 45 45 45 44 43 41 42 42 42 41 42 45 49 51 51 49 47 43 41 42 43 42 41 39 40 42 43 45 46 48 49 48 46 44 44 45 41 36 34 32 29 28 28 28 28 28 28 28 28 27 28
71 73 73 73 72 71 69 67 66 65 63 61 61 62 63 64 64 63 60 58 57 55 52 50 49 50 53 54 53 52 52 51 49 47 45 45 46 47 47 46 46 45 45 45 46 45 44 44 46 48 51 52 51 49 47 45 46 45 43 42 41 41 43 44 45 46 47 48 47 45 45 45 45 41 36 35 34 31 29 27 27 29 29 29 29 28 28 29
72 73 73 73 72 69 67 65 66 66 64 63 63 63 64 66 65 62 59 58 57 53 50 49 47 49 53 56 56 54 52 51 50 49 47 46 47 47 47 44 43 43 42 43 45 45 45 46 47 49 51 54 53 52 51 49 48 46 43 41 40 42 43 43 44 44 45 45 45 44 44 45 44 41 38 36 34 33 31 29 28 29 30 30 30 30 30 30
72 73 74 73 71 67 65 65 64 63 63 64 65 65 65 66 63 60 60 58 55 52 50 49 49 51 54 56 56 55 54 53 52 50 48 48 48 48 46 44 42 42 42 42 42 42 42 43 44 46 49 52 52 52 51 48 46 44 42 40 40 40 41 41 41 41 42 42 43 43 44 45 43 41 40 38 35 34 33 32 30 29 30 31 31 31 31 31
72 73 74 72 70 68 66 65 63 61 61 63 65 66 67 65 60 59 59 57 55 54 52 50 50 52 55 56 57 57 56 55 54 53 51 49 48 48 47 45 44 45 45 45 44 42 41 40 40 42 44 47 49 50 49 47 46 45 44 44 42 41 41 40 40 40 41 42 44 44 45 44 42 41 41 39 37 35 35 34 33 31 30 31 32 33 33 33
72 72 71 70 69 69 68 66 63 61 61 62 63 65 64 61 59 59 57 54 54 54 54 53 53 53 55 57 58 58 56 55 54 54 52 50 49 48 47 46 44 44 45 44 43 43 42 41 40 40 42 45 47 49 49 48 48 48 47 46 43 42 41 41 40 41 42 43 44 44 45 44 43 43 43 41 39 36 36 36 35 34 33 32 33 33 34 35
71 72 71 70 70 70 69 67 65 63 62 61 63 63 60 59 59 59 57 55 55 55 54 55 55 54 54 54 54 56 56 55 55 54 53 52 50 48 47 46 44 44 44 42 41 41 40 39 39 38 40 42 44 46 47 47 48 49 49 46 43 42 42 41 42 43 43 44 46 47 46 44 44 45 44 43 42 39 38 37 37 36 36 36 35 35 35 36
70 72 73 73 73 72 70 68 66 65 63 63 63 61 60 60 60 59 58 57 56 55 55 54 53 53 53 52 52 54 56 56 56 55 55 54 50 47 47 47 45 46 46 44 43 42 40 40 39 38 39 40 42 44 45 46 47 48 49 47 45 44 44 43 44 45 45 45 47 48 48 47 46 45 45 44 44 43 41 40 39 39 38 38 38 37 37 37
71 74 74 75 75 74 71 70 68 66 66 66 65 63 62 61 59 58 58 57 56 55 55 55 53 52 51 51 51 52 55 56 56 55 55 53 51 49 48 47 46 47 48 47 46 44 42 42 41 40 40 41 42 43 45 46 47 48 48 48 47 47 46 46 45 46 46 46 48 49 50 51 49 47 45 45 46 45 44 42 42 42 41 40 40 39 39 39
70 73 74 75 76 74 73 70 69 69 69 67 65 65 64 62 60 59 59 57 56 55 54 54 52 51 51 50 50 51 52 55 56 56 54 53 52 51 50 50 49 48 49 48 47 47 45 44 43 43 43 44 44 44 44 45 46 47 48 48 49 48 48 48 47 47 48 48 50 51 53 53 51 49 47 47 47 46 46 45 44 44 43 42 41 41 41 41
69 72 74 76 76 76 75 73 72 71 70 67 66 66 65 64 62 62 61 58 56 55 54 53 52 51 51 50 50 50 52 54 55 55 55 53 52 52 52 52 51 51 51 50 49 49 48 47 47 46 46 46 45 45 44 45 45 46 47 48 48 49 49 49 49 49 49 50 51 53 55 55 53 52 50 48 47 47 47 47 46 45 44 43 42 42 41 41
70 72 74 75 77 77 76 75 74 72 70 69 69 67 66 65 64 63 62 59 57 55 54 54 52 52 52 51 49 47 49 52 53 54 54 53 52 53 52 52 51 51 51 51 50 49 48 48 49 49 48 47 47 47 47 46 46 46 47 47 48 50 51 51 53 53 52 53 53 54 56 56 54 54 52 50 50 50 50 49 47 46 45 44 43 43 43 43
72 72 73 75 76 77 77 77 75 74 73 71 70 68 67 67 66 65 64 61 58 56 55 55 53 52 52 51 50 47 47 48 50 51 52 53 54 54 53 53 52 52 52 52 52 50 49 50 50 50 50 49 49 49 49 49 48 48 49 49 50 51 51 51 52 53 53 55 54 55 58 58 55 55 54 53 54 53 52 50 49 47 46 45 44 43 43 43
73 74 75 76 77 78 78 78 77 76 75 73 71 70 69 68 67 66 64 61 58 57 56 56 55 53 52 52 51 48 46 47 48 49 50 53 54 53 53 53 52 52 52 52 52 52 52 53 53 52 52 52 52 52 51 50 50 50 50 50 51 51 51 51 52 52 54 55 54 56 59 56 53 55 56 56 56 54 52 51 50 48 47 46 46 45 44 43
72 77 77 76 77 78 78 78 76 75 76 76 74 72 70 68 67 66 64 61 58 57 56 56 55 53 52 52 51 48 46 48 49 48 49 51 52 53 54 54 53 51 50 51 52 53 54 55 55 54 55 54 53 51 50 48 48 48 47 46 46 46 47 49 52 55 56 55 54 55 56 53 52 54 56 56 56 55 54 54 52 51 49 48 47 47 46 46
74 80 79 78 78 78 78 78 77 76 76 75 74 72 71 69 68 66 64 62 59 58 57 57 55 53 52 53 52 49 47 48 50 49 49 50 51 52 53 53 53 52 51 51 52 54 55 56 56 55 55 54 50 49 48 47 47 46 44 43 43 44 43 44 49 53 52 53 56 56 55 53 52 54 56 56 56 55 54 53 52 51 50 49 49 48 48 48
73 78 78 78 78 78 79 79 78 78 75 73 72 72 71 70 68 67 65 63 61 60 60 59 57 56 55 55 55 52 49 49 51 50 50 51 50 50 51 52 53 52 51 52 53 54 56 57 57 56 56 53 51 51 52 50 49 48 46 46 45 44 43 43 46 46 42 46 52 52 52 52 49 51 56 55 54 53 52 52 51 51 51 51 51 50 49 48
65 68 71 74 73 72 73 74 76 76 75 74 73 71 71 71 70 69 67 65 63 62 62 62 60 59 57 56 55 53 51 51 52 51 51 51 51 51 51 52 52 53 53 54 54 55 55 56 56 56 56 55 54 55 55 53 53 52 51 50 49 47 47 47 47 45 42 45 45 41 44 47 43 44 51 53 53 53 52 52 52 52 51 50 50 49 47 47
62 60 63 67 68 68 67 69 73 76 77 77 75 73 72 71 70 69 67 66 65 64 64 64 63 61 59 57 56 55 53 53 53 53 53 52 52 51 51 52 52 52 52 54 55 56 56 56 56 56 57 56 56 56 56 55 55 55 53 53 52 51 52 51 50 48 47 48 45 40 42 43 38 38 42 46 49 50 50 51 50 49 48 47 46 46 46 46
64 60 58 59 63 66 67 70 73 75 77 78 77 76 74 73 71 70 69 67 66 65 65 64 63 61 60 59 58 57 55 53 52 51 51 51 51 50 50 50 50 49 49 50 52 54 54 55 56 56 57 57 57 57 57 57 58 57 56 55 54 54 54 54 53 51 50 51 48 45 47 45 38 36 38 41 45 47 48 49 47 46 46 45 45 46 47 47
61 60 57 57 59 62 65 69 70 72 75 76 75 75 75 74 73 72 70 69 67 66 64 63 62 61 60 60 59 57 55 52 50 49 48 48 48 47 47 47 46 46 46 45 46 48 49 51 53 54 56 57 56 56 57 58 59 60 60 58 56 56 56 55 54 53 53 53 51 50 51 45 38 37 39 41 45 48 48 48 48 48 48 48 48 48 48 48
60 60 58 58 59 60 61 65 68 70 71 70 70 72 73 73 73 73 72 71 69 67 65 63 63 62 61 60 59 57 55 53 51 50 49 49 48 48 48 48 47 47 46 45 45 45 46 48 49 51 53 54 54 55 56 57 61 63 60 56 55 56 56 57 57 55 55 56 55 54 51 44 40 43 43 43 46 49 49 50 51 51 51 51 51 51 51 51
Wind_Direction
214 214 214 214 215 217 218 217 217 218 218 216 216 216 217 217 217 216 216 215 215 217 217 218 220 219 217 218 220 221 222 220 220 222 222 221 216 216 220 222 223 223 221 217 219 223 222 217 212 204 197 194 194 193 196 201 204 205 204 201 200 200 202 203 204 203 199 200 203 201 201 202 203 204 203 207 210 210 210 212 213 216 220 223 229 228 225 223
215 215 215 215 215 216 218 218 217 218 218 217 216 216 216 217 217 216 215 214 214 215 213 215 219 219 217 217 218 220 220 218 220 220 217 221 220 220 222 222 223 225 223 219 219 224 224 217 210 202 195 194 195 195 196 200 203 204 203 202 203 203 204 204 205 203 199 203 206 204 204 204 205 206 205 208 211 212 213 213 213 216 221 224 229 232 231 226
215 217 217 216 216 216 219 219 217 217 218 218 216 215 216 216 216 216 215 214 214 215 214 214 218 219 217 217 217 219 219 218 220 219 219 224 224 224 224 221 222 224 224 219 219 225 225 220 211 203 196 193 195 197 198 200 201 204 203 203 204 205 207 205 204 204 201 203 207 206 206 205 206 207 206 209 211 214 215 214 213 214 219 223 228 231 232 226
215 218 219 219 218 217 219 220 218 217 218 218 216 214 215 216 216 216 216 215 213 214 216 215 217 219 218 217 216 217 218 219 220 221 223 225 224 225 225 222 221 224 226 220 219 225 226 221 211 203 198 195 197 199 199 199 201 204 205 204 206 206 206 205 204 205 202 204 208 206 206 206 206 207 206 207 209 210 213 215 215 213 215 223 228 230 232 227
215 217 221 222 220 219 220 221 219 217 217 218 216 214 214 216 216 216 216 216 214 214 216 217 218 218 218 217 216 216 216 218 219 221 225 225 226 227 226 224 222 224 228 222 220 225 225 221 211 202 199 197 199 199 198 200 202 204 206 207 208 207 206 205 205 207 204 205 208 206 207 206 206 208 207 208 208 208 211 216 217 213 214 222 227 232 233 230
214 217 220 223 222 220 220 221 220 218 217 218 216 213 213 215 216 216 215 216 215 215 216 217 218 218 218 217 216 215 215 217 217 220 225 225 226 228 226 226 225 225 228 226 222 226 226 220 211 201 197 196 198 198 198 202 204 205 206 208 210 208 207 207 207 208 206 207 209 207 207 207 208 208 208 210 208 205 209 213 214 213 216 221 225 232 235 232
213 216 218 221 224 223 221 221 219 217 216 217 216 213 213 214 215 214 213 214 214 215 215 216 218 218 218 216 215 214 214 216 218 220 223 225 227 228 226 226 225 224 227 228 225 226 226 220 210 198 194 195 195 197 201 204 205 207 207 208 209 206 206 208 208 207 207 208 208 208 208 208 208 207 209 211 206 205 210 211 211 214 219 223 225 231 235 232
213 213 214 218 223 224 223 222 219 216 215 216 215 213 212 213 214 212 212 214 214 215 215 216 217 218 218 216 214 213 214 217 220 221 222 224 225 224 223 225 226 225 226 227 226 226 225 221 211 198 195 195 196 198 202 204 205 207 209 208 208 205 206 209 209 208 208 208 207 208 208 208 208 207 209 210 204 208 213 211 214 215 217 223 226 230 235 233
212 212 214 217 219 221 222 222 219 215 214 214 214 213 212 212 212 212 212 213 215 215 215 216 217 218 217 216 214 212 213 217 218 219 222 222 219 219 223 225 225 226 226 227 226 225 226 223 211 198 197 197 198 200 202 205 206 208 209 209 208 206 208 210 210 209 209 208 208 208 208 209 209 208 210 209 205 212 214 213 217 217 218 224 227 229 234 235
210 210 214 217 213 216 218 218 217 214 213 213 212 212 211 212 211 211 212 213 214 215 215 216 217 218 217 216 214 211 213 216 216 217 218 217 216 220 225 224 223 224 226 227 225 223 225 223 209 196 196 198 199 201 201 205 207 209 209 208 209 208 210 211 210 211 210 209 209 209 209 210 210 209 211 210 209 214 216 216 220 221 221 225 228 230 233 236
206 208 213 217 211 212 213 213 213 212 212 211 210 211 210 211 210 209 210 212 214 215 215 216 216 217 217 216 214 213 214 215 216 217 215 214 216 219 220 220 219 220 224 227 226 224 223 222 212 199 195 196 199 200 201 205 208 209 208 207 209 209 210 212 211 211 210 210 211 210 210 212 211 210 212 212 213 217 216 219 222 222 224 227 230 232 234 234
202 205 212 219 219 217 213 209 210 210 210 209 209 209 208 209 209 208 208 210 213 214 215 216 216 217 217 216 214 213 215 215 216 217 215 214 216 217 217 218 217 218 223 225 227 226 223 223 215 202 195 195 198 199 200 205 207 208 208 208 210 210 211 212 212 212 211 211 212 211 212 213 212 212 214 212 215 219 218 220 223 223 223 226 230 234 236 233
200 201 205 214 219 219 214 209 208 208 208 207 208 207 207 208 207 205 207 210 212 213 214 215 215 216 216 216 215 214 215 215 215 215 213 213 217 218 218 219 218 219 222 223 226 227 226 223 212 199 196 196 197 198 200 204 206 206 206 208 210 211 212 212 213 212 211 212 212 213 213 214 214 215 215 212 217 220 220 222 225 224 223 225 229 233 237 232
202 203 199 203 211 213 211 208 206 206 205 205 206 204 204 206 204 203 206 209 210 211 212 212 212 215 216 215 214 214 215 215 215 214 213 213 217 219 220 221 219 221 222 223 225 227 230 224 210 200 197 196 197 198 201 203 204 204 206 209 209 211 212 212 213 213 212 212 213 214 213 213 217 218 216 215 218 221 221 223 225 226 225 225 229 233 235 230
203 202 199 198 202 205 204 203 203 203 203 203 204 202 202 204 201 202 205 207 209 209 209 210 212 214 215 215 214 214 214 214 214 214 213 215 218 220 222 223 222 223 223 224 225 226 231 224 211 202 196 195 197 200 203 204 203 203 206 209 210 212 213 212 213 213 213 213 213 215 212 214 219 219 219 218 220 222 222 222 224 227 227 228 231 234 233 228
198 196 200 200 198 198 197 199 201 200 200 201 202 200 201 202 200 201 204 206 208 209 208 209 212 214 215 215 214 213 214 214 215 215 215 217 220 222 223 224 225 226 225 224 224 224 230 224 210 201 195 193 196 201 204 204 204 205 207 208 209 213 214 213 214 214 213 214 214 215 212 216 221 219 221 222 221 224 224 223 223 226 227 229 233 235 232 226
194 193 200 200 196 193 194 197 198 198 199 200 201 199 200 203 201 200 202 204 207 208 208 208 210 213 215 215 214 213 214 216 216 217 218 219 222 224 225 226 226 228 226 224 223 223 227 225 212 200 194 193 196 201 204 204 204 206 207 208 209 212 214 212 214 215 215 215 216 217 213 217 221 218 221 224 222 224 226 225 223 225 227 227 231 235 232 226
194 193 198 197 194 192 193 196 196 196 198 199 200 198 199 204 203 198 198 201 205 206 205 205 207 211 215 216 215 214 215 218 218 218 219 221 223 224 225 226 226 227 226 223 223 223 224 223 212 201 194 194 197 201 203 204 206 207 207 208 210 212 213 212 213 215 216 217 218 218 215 217 221 217 219 224 222 222 226 226 224 224 226 226 229 233 232 227
191 191 194 195 193 191 193 195 195 196 197 198 199 197 197 202 202 197 198 200 203 207 209 210 213 216 218 218 215 214 215 218 219 219 219 220 222 223 224 225 225 224 224 223 222 222 223 221 214 205 196 194 198 201 203 205 208 210 209 210 213 213 214 213 213 216 218 218 219 220 216 217 221 219 218 224 223 221 226 228 225 225 226 227 229 232 233 230
190 190 193 193 191 191 193 194 194 196 197 198 200 198 197 201 200 196 197 200 202 207 213 216 218 219 219 218 216 213 214 217 219 219 219 219 220 221 222 223 223 222 222 222 221 222 220 218 217 209 199 195 199 203 205 207 209 211 209 210 213 212 212 213 212 214 217 218 219 220 218 216 220 221 219 223 224 221 225 228 227 226 227 229 231 233 234 232
189 190 193 191 190 191 192 193 194 195 197 199 201 202 201 203 204 202 202 202 201 204 209 212 215 218 218 216 214 212 212 216 218 217 217 217 217 217 219 221 222 222 220 219 218 219 219 217 214 206 199 198 202 205 207 209 211 213 210 210 212 211 211 213 212 212 215 219 219 220 220 217 220 223 223 224 225 223 224 228 230 228 227 229 232 234 235 235
188 192 193 190 188 189 191 192 194 195 197 198 200 202 202 205 209 208 209 209 206 204 207 208 211 216 217 213 209 209 212 214 216 217 216 215 216 216 217 219 220 221 219 219 218 217 217 216 209 202 198 201 204 207 209 211 213 215 213 212 214 213 212 214 213 212 216 220 221 221 220 218 220 223 224 226 226 224 224 228 231 231 229 229 232 235 236 238
190 194 192 189 187 187 190 192 193 196 197 198 198 199 200 204 205 203 206 210 208 205 204 205 208 212 213 210 208 210 215 215 215 217 217 216 216 215 214 216 217 218 218 219 219 218 217 212 205 201 200 202 205 207 210 212 215 216 214 214 215 215 214 215 215 214 217 220 222 223 221 218 220 223 224 228 229 227 225 228 231 233 231 230 232 236 237 239
193 195 191 187 186 186 189 191 193 195 196 197 197 198 199 200 199 199 202 206 208 208 205 203 205 209 209 207 206 208 214 216 216 217 217 216 216 214 212 213 214 216 218 218 217 217 216 210 205 203 201 203 205 208 211 215 216 216 215 215 216 216 216 216 216 216 219 221 222 224 222 218 219 224 224 227 231 228 227 229 231 235 235 232 232 234 238 240
196 196 189 186 185 186 189 191 193 195 195 197 197 199 200 201 201 203 204 204 206 209 209 208 208 207 206 204 203 206 209 212 213 215 215 214 216 215 211 209 213 215 217 217 215 216 214 210 207 205 204 206 207 209 213 217 217 218 217 217 218 217 217 218 219 219 222 223 224 225 225 219 219 224 223 225 230 231 231 231 232 236 238 237 235 234 238 240
197 194 188 185 185 187 190 192 193 194 195 197 198 200 203 205 205 204 202 203 205 206 207 211 212 211 208 204 203 205 207 209 211 212 212 211 211 211 209 210 213 213 213 215 215 216 214 210 208 206 206 208 209 210 214 217 219 220 218 219 220 219 218 221 222 223 224 225 225 227 228 223 219 223 225 225 229 232 234 234 234 237 240 241 240 238 238 240
195 192 187 186 186 187 191 192 193 194 195 196 198 200 203 203 202 200 199 202 205 205 205 208 210 212 211 207 205 207 208 208 209 210 210 210 208 206 207 211 212 210 210 212 214 216 215 211 209 208 207 209 210 211 214 218 220 221 219 220 222 221 220 223 224 225 225 225 227 228 231 229 222 222 227 226 228 232 235 237 238 239 241 243 243 242 242 242
194 190 186 185 186 189 191 193 194 194 195 197 198 199 201 199 197 198 200 203 204 203 204 206 207 210 210 207 207 209 209 209 210 210 209 209 208 205 206 208 209 210 211 214 217 218 215 211 210 211 210 210 211 212 214 218 221 222 221 221 224 225 223 224 226 227 227 227 228 229 233 233 225 222 228 229 228 232 236 240 241 240 242 244 244 245 246 246
195 189 185 185 186 188 191 192 194 194 195 197 197 197 197 195 196 198 201 204 204 201 202 203 205 207 208 207 207 208 209 209 211 212 211 209 207 205 205 205 205 207 208 213 219 220 217 214 212 212 213 213 213 213 215 219 222 223 223 222 225 227 225 226 227 228 229 228 228 229 232 235 229 224 228 231 229 232 237 241 242 242 244 245 246 247 248 249
193 188 185 185 186 188 189 190 192 194 195 195 195 195 194 194 196 199 201 202 202 201 201 202 203 205 207 207 207 208 209 208 210 211 209 208 206 205 206 205 205 206 205 209 215 216 216 216 214 213 214 214 213 214 214 218 221 222 223 223 225 228 228 227 228 229 230 229 228 230 231 235 233 226 228 231 230 233 238 242 244 244 246 248 248 248 249 251
190 187 186 186 187 188 189 189 190 193 195 194 193 192 193 195 197 199 200 201 202 201 201 202 202 203 205 207 208 208 209 209 209 210 210 207 205 205 207 207 205 205 205 210 215 215 214 216 216 215 215 215 215 214 214 216 219 221 223 223 224 228 229 229 230 231 232 230 229 232 233 235 233 228 229 233 233 234 239 244 247 248 249 250 250 250 249 250
189 187 187 186 187 189 189 189 190 192 194 194 194 193 193 195 198 199 199 200 202 202 201 203 203 203 204 205 208 210 210 209 209 210 210 211 209 208 211 211 208 207 207 210 214 214 212 215 218 218 217 217 217 216 216 216 218 220 221 222 224 228 229 231 231 232 233 232 232 234 236 237 234 231 234 237 236 237 239 243 247 250 251 251 252 253 252 250
189 187 187 187 187 188 188 190 192 192 193 193 195 195 196 197 198 199 199 201 202 201 201 204 205 205 205 205 206 209 211 211 211 210 209 210 211 211 213 213 211 212 214 214 216 215 212 213 216 218 218 218 218 219 219 218 219 222 223 224 227 230 231 233 234 235 236 236 237 238 239 239 235 234 238 241 241 241 241 243 246 249 252 253 254 255 255 254
189 189 188 187 186 187 189 191 193 194 194 194 195 195 197 199 200 200 201 202 202 200 201 203 204 205 206 207 207 207 209 210 211 212 212 210 210 211 213 213 211 214 217 219 221 222 221 220 220 220 221 221 221 222 222 221 222 225 226 228 230 233 235 237 239 240 240 240 240 240 241 240 237 238 241 244 244 243 243 245 246 248 251 254 256 256 256 256
189 189 188 186 185 186 189 192 194 196 196 197 197 197 199 200 201 203 204 202 201 200 200 201 204 205 206 207 207 208 209 210 210 212 213 213 214 214 215 214 211 213 216 218 219 221 223 225 226 226 227 226 226 226 226 225 225 227 228 229 230 233 236 239 240 242 242 242 242 241 242 240 239 241 243 244 245 244 245 247 249 251 252 254 256 258 259 258
190 189 187 186 187 188 190 192 194 197 199 200 200 200 201 201 202 204 205 204 203 202 200 201 202 205 207 207 207 208 209 210 211 213 214 214 216 216 216 215 214 216 220 221 221 221 220 222 224 224 227 229 228 229 229 229 229 230 231 231 232 234 237 240 242 243 244 244 243 243 243 242 242 242 243 245 246 246 247 249 252 255 256 256 257 258 259 260
191 188 186 187 189 191 192 193 194 197 200 202 204 203 201 202 203 204 204 203 204 203 203 204 204 204 207 208 209 209 210 210 211 213 215 216 217 217 217 217 215 217 221 223 225 226 225 226 226 225 228 230 230 231 231 231 231 232 233 234 235 236 238 240 242 243 244 246 245 244 244 244 244 244 245 248 249 249 249 251 254 256 257 258 258 258 259 259
191 188 187 188 191 193 194 195 196 198 200 202 203 202 202 203 204 204 203 203 204 204 203 206 208 207 208 209 209 211 211 211 212 213 215 217 219 219 218 218 217 217 220 221 222 224 225 226 226 226 228 230 231 233 233 233 233 233 234 234 235 237 238 239 241 244 245 247 247 247 246 246 245 245 247 250 251 252 252 253 255 257 257 258 259 259 260 259
191 189 188 189 192 194 195 196 197 199 201 202 200 200 203 204 204 204 205 204 205 205 205 206 208 209 211 211 211 211 212 213 215 215 216 217 219 220 219 220 219 218 221 222 221 222 222 224 225 225 226 228 229 231 233 235 235 235 235 235 236 238 238 239 240 243 245 247 248 248 247 246 246 246 249 251 253 254 255 255 256 257 257 258 259 260 260 260
193 191 190 191 193 195 196 197 198 200 202 202 200 200 202 203 203 205 206 205 206 207 207 207 207 209 212 213 212 212 213 216 217 217 218 218 219 219 219 219 219 219 222 223 222 223 223 224 226 226 226 227 229 231 233 235 236 237 238 238 238 239 240 241 241 242 245 247 248 248 248 248 247 247 248 251 253 255 257 257 257 257 257 258 258 259 259 260
195 193 192 192 194 196 197 199 200 201 202 201 202 203 203 202 203 205 206 205 206 208 208 208 209 209 211 214 214 213 213 216 218 219 220 220 221 222 221 221 221 220 222 224 224 225 225 226 227 229 228 229 231 233 234 235 236 238 239 240 240 240 241 242 242 242 244 246 248 249 250 249 248 248 249 251 253 255 256 257 257 258 258 259 259 258 259 259
196 195 194 194 195 197 199 200 201 202 203 203 203 204 204 204 204 205 206 206 206 208 209 208 209 210 211 213 214 215 216 217 218 219 221 222 223 223 224 224 225 224 224 226 228 228 229 230 230 231 231 231 232 232 233 234 236 237 238 239 240 241 243 244 246 247 247 247 248 250 251 250 250 251 252 253 254 255 256 257 258 259 260 260 260 259 259 259
196 195 196 196 197 198 199 201 202 203 205 205 204 204 205 206 205 205 206 206 206 208 209 208 209 210 212 213 213 213 216 219 220 220 222 224 223 224 225 225 226 226 225 227 230 231 232 233 233 234 234 235 234 235 235 236 236 238 240 241 242 244 245 247 248 249 248 247 248 250 252 252 252 254 255 255 256 256 256 257 258 259 259 260 260 260 260 259
198 195 195 196 198 199 201 202 203 204 205 206 206 207 207 207 207 207 207 207 207 208 209 209 209 210 212 213 213 212 213 216 219 219 221 224 224 225 227 227 227 227 227 228 231 232 233 233 233 234 234 235 235 236 238 239 240 241 242 243 244 245 246 246 247 248 249 250 249 249 252 254 255 255 256 256 256 257 257 258 258 259 259 259 259 260 260 259
201 195 195 198 199 200 202 204 206 207 207 207 207 208 208 208 208 209 209 208 208 209 211 211 211 211 212 214 214 213 213 214 216 217 219 222 223 223 225 227 228 227 228 229 230 232 234 234 235 235 236 237 239 241 244 246 247 247 246 247 249 250 251 251 251 251 251 252 252 252 255 258 258 258 258 258 258 259 259 259 259 259 259 259 259 259 259 259
203 198 196 198 199 201 203 204 206 209 210 210 208 208 209 209 209 210 210 210 209 211 212 213 213 213 214 215 215 214 214 214 215 216 217 219 221 223 224 226 227 227 227 228 229 230 232 234 234 236 238 241 244 247 250 251 251 251 252 253 254 255 256 255 253 252 254 256 255 254 256 258 258 258 259 259 259 259 259 259 259 258 258 258 258 259 259 259
204 204 203 202 201 202 203 205 206 209 211 213 212 211 211 210 211 212 212 211 211 212 214 215 215 215 215 216 217 216 215 216 217 217 217 217 218 221 223 224 226 226 226 227 228 229 231 233 234 235 237 239 240 242 243 244 245 247 248 248 249 250 251 251 251 252 256 258 255 254 255 256 256 256 258 259 259 258 258 257 257 257 257 257 258 259 260 260
204 206 209 211 211 210 208 208 208 209 211 213 214 215 215 213 213 213 213 213 213 214 216 217 217 217 217 218 220 220 219 218 218 218 219 220 220 221 223 223 224 225 225 226 227 228 230 233 234 235 236 236 238 240 241 241 242 242 243 243 244 245 245 246 247 248 251 255 256 257 256 257 257 256 256 258 259 259 258 258 258 258 258 258 258 259 261 262
205 207 209 212 214 216 215 213 211 210 211 212 213 215 217 217 216 216 216 216 216 216 217 218 218 218 219 220 221 223 223 222 222 221 222 223 223 223 224 224 224 225 225 226 227 228 230 231 233 235 235 235 236 238 240 242 242 242 242 243 244 244 245 248 250 252 254 257 260 260 259 258 258 257 257 257 259 260 261 262 262 262 262 262 262 262 263 264
207 209 211 211 211 213 215 215 213 212 213 213 213 214 216 217 218 219 219 219 219 218 218 219 220 221 222 223 223 224 224 224 226 227 227 227 227 227 228 228 228 227 227 227 228 229 230 232 233 235 236 236 236 238 240 242 243 243 243 242 243 245 248 251 255 257 259 261 262 262 261 261 262 263 264 263 263 264 265 266 267 267 266 265 264 263 263 263
208 210 212 212 210 210 212 214 215 216 217 216 216 216 216 217 217 219 220 220 221 221 220 221 223 224 225 226 226 226 226 227 228 230 230 231 232 232 233 233 233 233 233 233 233 233 233 234 235 236 238 239 239 240 241 242 243 243 243 243 245 249 253 257 260 261 261 262 263 262 261 262 265 267 267 266 266 266 266 267 267 267 265 264 263 263 262 262
208 209 210 210 211 211 212 213 215 217 220 221 221 221 220 219 219 219 220 220 221 221 221 223 225 227 228 228 228 227 228 229 230 230 231 231 231 231 232 232 232 233 234 235 236 236 236 237 238 239 240 241 242 242 243 243 243 243 245 249 252 254 256 258 259 260 261 262 262 263 263 265 266 265 263 261 262 263 263 263 262 263 263 264 263 263 263 263
Height
5656 5662 5668 5673 5678 5683 5689 5695 5701 5706 5712 5716 5720 5725 5730 5734 5739 5743 5747 5752 5756 5759 5762 5764 5766 5768 5771 5773 5776 5778 5781 5785 5788 5791 5795 5796 5798 5800 5803 5805 5807 5809 5812 5814 5817 5819 5821 5823 5824 5828 5832 5835 5839 5842 5845 5848 5850 5851 5854 5857 5859 5861 5863 5864 5865 5866 5870 5871 5872 5873 5874 5876 5877 5878 5880 5881 5882 5883 5884 5884 5885 5886 5887 5888 5889 5889 5889 5890
5648 5653 5660 5666 5671 5677 5682 5689 5695 5700 5706 5710 5715 5720 5725 5730 5734 5738 5742 5747 5751 5754 5757 5760 5762 5764 5767 5769 5772 5775 5777 5782 5785 5789 5794 5794 5794 5798 5800 5803 5804 5807 5809 5811 5815 5817 5818 5820 5822 5825 5828 5832 5837 5841 5843 5845 5848 5851 5854 5856 5858 5859 5860 5861 5863 5866 5870 5871 5871 5873 5874 5875 5876 5878 5879 5880 5881 5882 5883 5884 5885 5886 5887 5888 5888 5889 5889 5889
5641 5645 5651 5658 5665 5671 5676 5682 5688 5694 5700 5705 5710 5715 5720 5725 5729 5734 5738 5742 5747 5750 5753 5755 5757 5760 5763 5765 5768 5771 5774 5779 5783 5789 5792 5791 5792 5795 5797 5799 5802 5804 5806 5809 5813 5815 5817 5818 5821 5824 5826 5830 5835 5838 5841 5843 5846 5850 5852 5854 5855 5856 5858 5860 5863 5866 5868 5869 5870 5871 5872 5874 5876 5877 5878 5879 5881 5882 5883 5884 5885 5885 5886 5887 5888 5888 5889 5889
5634 5639 5644 5650 5658 5665 5670 5676 5682 5689 5695 5700 5705 5710 5715 5720 5725 5729 5733 5738 5742 5745 5748 5750 5753 5756 5759 5761 5764 5768 5772 5777 5782 5788 5788 5787 5789 5792 5793 5796 5798 5801 5803 5807 5811 5813 5815 5816 5818 5822 5825 5828 5832 5835 5838 5841 5845 5847 5850 5851 5852 5853 5856 5859 5862 5864 5866 5867 5868 5870 5871 5873 5875 5875 5877 5878 5879 5881 5882 5883 5884 5885 5886 5886 5887 5888 5888 5888
5628 5633 5639 5644 5651 5658 5664 5670 5677 5684 5690 5695 5700 5705 5711 5716 5721 5726 5730 5734 5737 5741 5744 5746 5749 5752 5755 5758 5761 5765 5770 5774 5780 5783 5782 5783 5786 5788 5789 5792 5795 5798 5801 5805 5808 5810 5812 5814 5815 5819 5822 5826 5830 5833 5837 5840 5842 5844 5847 5849 5849 5853 5856 5859 5861 5862 5864 5866 5867 5869 5870 5872 5873 5874 5876 5877 5878 5880 5881 5882 5883 5885 5885 5886 5886 5887 5887 5887
5623 5628 5634 5638 5644 5652 5658 5665 5671 5679 5685 5690 5696 5701 5706 5711 5717 5722 5726 5730 5734 5737 5740 5743 5746 5748 5751 5754 5758 5763 5767 5772 5776 5777 5777 5780 5782 5784 5786 5789 5792 5796 5798 5802 5805 5807 5809 5811 5812 5815 5819 5824 5828 5832 5836 5838 5841 5843 5846 5847 5850 5854 5857 5858 5859 5861 5863 5864 5866 5868 5869 5871 5872 5873 5874 5875 5877 5879 5880 5881 5882 5884 5884 5885 5885 5886 5886 5887
5618 5623 5630 5634 5639 5646 5653 5660 5666 5673 5680 5686 5692 5697 5702 5707 5713 5718 5722 5726 5731 5733 5736 5739 5742 5745 5747 5751 5756 5760 5765 5769 5771 5773 5774 5777 5779 5781 5783 5786 5790 5793 5796 5799 5802 5804 5806 5808 5810 5812 5816 5820 5825 5830 5834 5836 5840 5843 5843 5845 5848 5852 5854 5855 5856 5859 5861 5862 5864 5866 5868 5869 5870 5872 5873 5874 5876 5877 5878 5879 5881 5882 5883 5884 5884 5885 5885 5886
5610 5617 5625 5629 5634 5641 5648 5655 5662 5669 5676 5682 5688 5694 5699 5703 5708 5713 5717 5722 5726 5729 5733 5736 5739 5742 5745 5750 5754 5758 5763 5766 5768 5769 5771 5774 5776 5778 5780 5784 5787 5790 5794 5796 5798 5801 5802 5804 5808 5811 5814 5818 5823 5827 5830 5834 5838 5840 5841 5843 5845 5849 5851 5852 5854 5857 5858 5860 5862 5864 5866 5868 5869 5871 5872 5873 5875 5876 5877 5878 5879 5881 5882 5882 5883 5884 5884 5885
5602 5611 5620 5622 5627 5636 5642 5649 5657 5665 5672 5678 5685 5691 5696 5700 5704 5709 5714 5718 5722 5726 5730 5733 5736 5739 5743 5746 5750 5755 5759 5761 5763 5765 5767 5770 5773 5775 5778 5781 5784 5787 5790 5792 5794 5797 5800 5802 5804 5809 5812 5816 5820 5823 5828 5833 5835 5837 5838 5841 5844 5847 5849 5850 5853 5855 5856 5858 5860 5862 5864 5866 5868 5869 5870 5872 5874 5875 5876 5877 5878 5879 5880 5881 5882 5883 5883 5884
5596 5605 5613 5617 5622 5629 5636 5644 5653 5661 5668 5674 5681 5687 5692 5696 5700 5706 5710 5714 5718 5723 5726 5730 5733 5736 5740 5743 5747 5752 5754 5755 5759 5761 5764 5767 5770 5773 5776 5778 5781 5784 5787 5788 5791 5794 5797 5799 5801 5805 5809 5814 5818 5822 5827 5830 5832 5833 5836 5841 5844 5845 5847 5849 5851 5853 5854 5856 5858 5860 5862 5864 5866 5868 5870 5871 5872 5873 5874 5876 5877 5878 5879 5880 5881 5882 5882 5883
5591 5600 5607 5612 5618 5624 5631 5639 5648 5657 5664 5670 5677 5683 5688 5692 5696 5701 5707 5711 5715 5719 5723 5727 5730 5734 5737 5740 5744 5748 5749 5751 5756 5757 5760 5765 5767 5770 5773 5775 5778 5781 5783 5785 5789 5791 5793 5794 5797 5801 5805 5811 5816 5820 5824 5826 5829 5831 5835 5839 5841 5842 5844 5846 5848 5850 5852 5854 5856 5858 5860 5862 5865 5867 5869 5870 5870 5871 5873 5874 5875 5877 5878 5879 5879 5880 5881 5881
5586 5595 5602 5606 5613 5620 5628 5635 5643 5652 5659 5666 5673 5679 5685 5688 5692 5698 5703 5707 5710 5715 5720 5723 5727 5730 5733 5736 5740 5743 5745 5748 5752 5754 5758 5762 5764 5767 5769 5772 5775 5778 5780 5783 5785 5787 5789 5790 5794 5798 5802 5807 5812 5817 5820 5822 5826 5830 5834 5836 5837 5839 5841 5843 5846 5848 5851 5853 5854 5856 5858 5861 5864 5866 5866 5867 5868 5869 5871 5873 5874 5876 5877 5877 5878 5879 5879 5880
5581 5589 5595 5600 5608 5615 5624 5633 5640 5647 5655 5662 5669 5676 5681 5684 5689 5694 5699 5703 5707 5712 5717 5720 5723 5726 5728 5733 5737 5740 5742 5745 5749 5751 5755 5759 5761 5764 5766 5769 5773 5775 5777 5780 5782 5784 5786 5788 5791 5795 5800 5804 5808 5812 5815 5818 5822 5827 5830 5832 5834 5836 5838 5841 5844 5846 5848 5850 5852 5854 5857 5860 5862 5862 5862 5865 5866 5868 5870 5871 5873 5874 5875 5876 5877 5878 5878 5879
5576 5583 5588 5593 5601 5610 5619 5628 5635 5643 5650 5657 5664 5672 5676 5679 5685 5690 5694 5698 5703 5708 5712 5716 5718 5721 5725 5730 5734 5737 5739 5742 5745 5748 5752 5756 5759 5761 5763 5766 5770 5772 5774 5777 5779 5781 5783 5785 5787 5791 5796 5801 5805 5809 5812 5815 5819 5824 5827 5828 5831 5833 5836 5839 5841 5844 5846 5848 5850 5852 5855 5858 5858 5858 5861 5863 5865 5866 5868 5869 5871 5872 5874 5875 5875 5876 5877 5877
5572 5580 5584 5588 5596 5605 5614 5623 5630 5638 5645 5652 5659 5666 5671 5674 5680 5685 5689 5694 5699 5703 5708 5711 5714 5718 5723 5727 5730 5733 5736 5739 5743 5746 5749 5754 5756 5758 5760 5763 5766 5769 5771 5773 5776 5778 5779 5782 5784 5788 5793 5798 5803 5807 5810 5813 5817 5820 5822 5825 5828 5831 5834 5837 5839 5841 5844 5846 5849 5850 5854 5856 5855 5858 5860 5862 5863 5864 5866 5867 5869 5870 5872 5873 5874 5875 5876 5876
5567 5575 5580 5584 5591 5600 5609 5617 5625 5633 5640 5647 5654 5661 5666 5669 5673 5679 5684 5690 5695 5699 5703 5706 5711 5716 5719 5722 5726 5731 5734 5737 5741 5743 5747 5750 5753 5755 5757 5759 5763 5765 5768 5770 5772 5775 5777 5779 5781 5785 5790 5794 5800 5804 5808 5811 5814 5816 5819 5822 5827 5829 5832 5836 5837 5840 5843 5845 5847 5849 5852 5853 5853 5857 5859 5860 5862 5862 5864 5866 5867 5869 5870 5872 5873 5873 5874 5875
5562 5570 5576 5580 5588 5596 5604 5612 5620 5628 5634 5641 5649 5655 5661 5664 5667 5673 5680 5686 5691 5695 5699 5702 5707 5711 5714 5719 5725 5730 5733 5736 5738 5741 5744 5747 5749 5752 5754 5757 5759 5762 5765 5767 5769 5772 5775 5777 5779 5783 5787 5792 5796 5800 5804 5807 5810 5813 5816 5820 5824 5825 5828 5833 5836 5839 5842 5844 5845 5847 5850 5851 5852 5856 5857 5857 5859 5861 5862 5864 5866 5867 5869 5870 5871 5872 5873 5873
5558 5565 5570 5576 5584 5592 5600 5608 5616 5623 5630 5637 5643 5650 5656 5660 5663 5669 5675 5681 5685 5686 5689 5694 5700 5704 5711 5719 5726 5729 5731 5733 5735 5738 5741 5744 5747 5749 5751 5753 5756 5759 5761 5764 5766 5769 5772 5774 5777 5780 5784 5789 5793 5797 5800 5805 5808 5811 5814 5818 5820 5822 5827 5832 5835 5838 5841 5842 5843 5845 5848 5849 5851 5853 5854 5855 5857 5859 5860 5862 5864 5866 5867 5868 5869 5870 5871 5872
5554 5560 5566 5572 5579 5588 5596 5604 5612 5619 5625 5631 5636 5643 5648 5652 5658 5665 5670 5673 5676 5681 5688 5695 5702 5709 5716 5721 5724 5727 5728 5729 5732 5736 5739 5741 5744 5746 5748 5750 5753 5756 5758 5761 5764 5766 5769 5772 5774 5777 5782 5787 5791 5795 5798 5803 5807 5810 5814 5817 5819 5823 5828 5832 5835 5837 5839 5840 5841 5842 5845 5847 5848 5850 5852 5852 5854 5857 5858 5860 5863 5864 5865 5866 5867 5868 5869 5870
5550 5557 5562 5567 5575 5585 5593 5600 5608 5614 5620 5626 5630 5634 5638 5644 5650 5657 5663 5671 5678 5688 5696 5702 5707 5711 5714 5717 5720 5723 5724 5725 5728 5732 5736 5739 5740 5743 5745 5747 5749 5752 5756 5759 5761 5764 5766 5769 5772 5777 5781 5785 5789 5793 5797 5801 5805 5807 5811 5814 5817 5822 5825 5828 5831 5834 5835 5836 5837 5839 5842 5844 5845 5847 5850 5851 5853 5855 5857 5859 5861 5862 5863 5864 5866 5867 5867 5868
5546 5552 5558 5564 5573 5581 5590 5597 5604 5611 5618 5624 5630 5635 5642 5650 5655 5661 5669 5676 5681 5687 5693 5698 5703 5705 5708 5714 5718 5720 5720 5722 5725 5728 5732 5735 5737 5739 5741 5743 5746 5750 5753 5755 5758 5761 5764 5767 5771 5776 5781 5785 5789 5792 5796 5800 5802 5804 5808 5812 5815 5818 5821 5824 5827 5830 5831 5832 5834 5836 5839 5842 5844 5846 5848 5849 5851 5854 5856 5857 5858 5860 5861 5862 5864 5865 5865 5866
5543 5548 5555 5562 5569 5578 5587 5594 5601 5608 5614 5621 5629 5639 5649 5656 5663 5671 5675 5675 5676 5680 5685 5692 5696 5699 5705 5711 5715 5716 5716 5719 5723 5725 5728 5731 5734 5736 5739 5741 5744 5747 5750 5752 5754 5757 5760 5764 5770 5775 5779 5783 5787 5790 5793 5797 5800 5803 5808 5812 5814 5816 5818 5821 5824 5827 5829 5830 5832 5834 5837 5841 5843 5843 5845 5846 5849 5852 5854 5855 5856 5857 5859 5861 5862 5863 5863 5864
5540 5545 5551 5559 5567 5575 5583 5591 5598 5605 5611 5620 5629 5638 5645 5651 5659 5666 5669 5671 5673 5673 5677 5684 5688 5693 5700 5706 5710 5713 5714 5718 5721 5723 5727 5730 5732 5734 5737 5739 5741 5744 5747 5749 5752 5755 5757 5762 5768 5772 5776 5780 5783 5787 5791 5794 5797 5802 5806 5809 5811 5813 5816 5818 5822 5825 5826 5828 5830 5832 5835 5838 5840 5841 5843 5845 5847 5850 5851 5852 5853 5855 5857 5859 5859 5860 5861 5862
5538 5542 5549 5556 5564 5571 5580 5587 5594 5601 5611 5620 5628 5635 5641 5646 5653 5657 5661 5668 5672 5673 5676 5680 5683 5689 5695 5701 5707 5710 5712 5716 5719 5722 5725 5728 5730 5732 5735 5737 5739 5742 5744 5748 5752 5755 5758 5763 5766 5769 5773 5777 5781 5785 5789 5792 5796 5799 5802 5805 5807 5810 5813 5816 5819 5822 5823 5825 5827 5829 5831 5835 5837 5839 5841 5843 5844 5846 5848 5850 5851 5853 5854 5856 5857 5858 5859 5860
5535 5540 5546 5554 5560 5568 5577 5584 5591 5600 5609 5616 5623 5631 5637 5643 5648 5652 5658 5663 5666 5670 5676 5679 5682 5686 5691 5697 5702 5705 5709 5712 5715 5719 5723 5726 5729 5731 5734 5736 5738 5741 5744 5748 5751 5754 5757 5762 5765 5769 5773 5776 5780 5784 5788 5790 5794 5797 5800 5802 5805 5808 5811 5814 5817 5819 5821 5823 5825 5826 5828 5831 5835 5836 5838 5840 5841 5843 5846 5847 5849 5851 5851 5853 5854 5856 5857 5858
5532 5538 5545 5551 5558 5566 5573 5581 5590 5598 5605 5613 5622 5629 5634 5640 5644 5648 5654 5658 5660 5664 5670 5676 5682 5685 5689 5694 5698 5701 5704 5707 5712 5716 5720 5723 5726 5730 5732 5734 5736 5740 5744 5747 5750 5752 5755 5759 5763 5767 5772 5775 5779 5783 5785 5788 5792 5794 5797 5800 5802 5805 5809 5812 5814 5816 5818 5819 5822 5824 5825 5828 5831 5833 5835 5838 5839 5841 5843 5845 5847 5848 5849 5850 5852 5853 5854 5855
5530 5536 5543 5549 5557 5565 5573 5581 5588 5595 5603 5612 5620 5627 5632 5636 5640 5645 5649 5651 5654 5659 5665 5671 5677 5683 5688 5693 5696 5698 5701 5705 5710 5714 5717 5720 5723 5727 5729 5732 5735 5739 5742 5744 5746 5748 5752 5757 5761 5765 5770 5773 5775 5779 5783 5786 5789 5791 5795 5798 5800 5803 5807 5809 5810 5812 5814 5816 5819 5821 5823 5825 5828 5831 5833 5836 5838 5839 5841 5843 5845 5846 5847 5848 5849 5850 5851 5853
5529 5534 5541 5549 5558 5567 5575 5582 5588 5596 5605 5612 5619 5624 5629 5632 5637 5641 5642 5644 5648 5656 5662 5668 5674 5679 5685 5689 5693 5697 5701 5706 5708 5710 5714 5718 5720 5723 5726 5730 5734 5738 5741 5743 5745 5748 5752 5757 5761 5764 5768 5770 5773 5777 5780 5783 5786 5789 5793 5796 5798 5801 5804 5806 5807 5809 5811 5813 5815 5819 5821 5821 5825 5830 5831 5833 5836 5837 5839 5841 5842 5843 5844 5845 5847 5848 5849 5850
5528 5533 5540 5548 5556 5564 5574 5582 5590 5597 5602 5608 5615 5619 5624 5629 5632 5635 5637 5640 5646 5653 5659 5665 5670 5675 5680 5685 5690 5694 5699 5702 5705 5709 5713 5715 5718 5721 5724 5728 5731 5735 5739 5742 5744 5748 5753 5756 5760 5763 5766 5768 5772 5775 5778 5781 5784 5787 5790 5794 5796 5797 5800 5802 5803 5806 5808 5809 5812 5816 5818 5818 5822 5827 5829 5830 5834 5836 5837 5838 5838 5840 5842 5843 5844 5845 5846 5847
5527 5533 5539 5545 5553 5562 5571 5580 5589 5594 5599 5604 5609 5614 5619 5622 5624 5627 5629 5635 5643 5650 5655 5660 5666 5671 5676 5682 5686 5691 5695 5698 5702 5706 5709 5712 5716 5720 5722 5725 5729 5733 5737 5739 5741 5746 5750 5754 5757 5760 5762 5766 5769 5771 5775 5778 5780 5784 5787 5790 5793 5794 5796 5798 5799 5802 5803 5804 5808 5812 5815 5816 5818 5823 5826 5828 5832 5834 5834 5835 5836 5838 5839 5840 5842 5843 5844 5844
5526 5533 5539 5546 5554 5562 5570 5577 5583 5589 5596 5601 5604 5607 5611 5615 5618 5620 5625 5635 5642 5647 5652 5658 5663 5668 5673 5679 5684 5687 5690 5694 5699 5702 5704 5708 5712 5715 5717 5720 5725 5729 5733 5736 5737 5741 5746 5749 5752 5755 5758 5762 5765 5768 5771 5774 5776 5780 5783 5786 5789 5790 5792 5794 5795 5797 5798 5801 5806 5809 5811 5813 5814 5820 5825 5826 5829 5831 5831 5833 5834 5836 5836 5838 5839 5840 5841 5842
5525 5532 5539 5546 5553 5562 5570 5576 5580 5585 5591 5596 5599 5602 5604 5607 5610 5616 5625 5633 5637 5643 5651 5657 5662 5667 5672 5677 5681 5684 5687 5691 5695 5698 5702 5706 5708 5710 5712 5716 5720 5723 5726 5729 5731 5736 5741 5745 5748 5752 5755 5759 5762 5764 5767 5769 5772 5775 5778 5782 5785 5786 5787 5789 5791 5793 5795 5799 5803 5806 5808 5809 5812 5818 5822 5823 5825 5827 5828 5830 5831 5832 5833 5834 5836 5837 5838 5838
5523 5530 5537 5543 5552 5562 5570 5574 5577 5581 5585 5589 5593 5598 5600 5601 5606 5616 5625 5630 5636 5645 5652 5656 5661 5665 5668 5671 5675 5680 5685 5689 5693 5695 5699 5703 5706 5709 5712 5716 5722 5724 5726 5728 5730 5733 5738 5741 5743 5747 5750 5754 5757 5760 5763 5766 5769 5772 5775 5779 5781 5782 5783 5786 5788 5791 5794 5797 5800 5803 5804 5806 5811 5816 5818 5819 5821 5823 5825 5827 5828 5829 5830 5831 5832 5833 5834 5835
5521 5528 5533 5541 5551 5561 5566 5570 5574 5579 5582 5584 5587 5591 5594 5599 5609 5618 5622 5627 5637 5644 5648 5652 5657 5660 5663 5668 5672 5676 5680 5685 5689 5692 5696 5699 5702 5706 5710 5715 5720 5723 5726 5728 5730 5734 5737 5740 5742 5745 5748 5751 5755 5758 5761 5765 5768 5770 5773 5776 5778 5779 5782 5784 5787 5789 5792 5795 5797 5799 5800 5803 5810 5813 5813 5815 5818 5820 5822 5823 5824 5826 5827 5828 5829 5829 5830 5831
5519 5525 5532 5541 5549 5556 5561 5566 5572 5576 5579 5581 5583 5585 5589 5599 5611 5616 5619 5627 5634 5639 5643 5648 5652 5655 5659 5664 5668 5672 5676 5680 5685 5689 5692 5696 5700 5704 5707 5711 5716 5718 5720 5723 5727 5731 5735 5739 5742 5745 5748 5751 5754 5757 5760 5763 5765 5766 5768 5770 5774 5777 5779 5782 5784 5786 5789 5790 5792 5794 5797 5802 5807 5808 5809 5811 5814 5817 5818 5819 5820 5822 5823 5824 5825 5826 5827 5827
5516 5524 5532 5541 5547 5551 5556 5562 5568 5572 5575 5579 5581 5584 5592 5604 5610 5613 5620 5628 5631 5635 5639 5641 5645 5650 5654 5658 5664 5669 5674 5678 5683 5686 5690 5694 5698 5702 5705 5709 5714 5716 5718 5721 5725 5728 5732 5735 5739 5743 5745 5748 5751 5753 5756 5759 5761 5763 5764 5767 5772 5775 5776 5778 5780 5782 5784 5785 5788 5791 5795 5799 5803 5804 5805 5808 5810 5813 5814 5815 5817 5818 5819 5821 5821 5822 5823 5823
5515 5522 5530 5538 5543 5548 5552 5558 5563 5567 5572 5576 5580 5588 5599 5605 5606 5610 5617 5622 5626 5631 5635 5637 5640 5645 5650 5656 5661 5666 5670 5674 5678 5683 5687 5691 5694 5699 5703 5707 5712 5715 5717 5721 5725 5727 5731 5734 5737 5741 5743 5745 5748 5750 5753 5755 5758 5759 5762 5766 5770 5771 5772 5775 5777 5778 5779 5781 5784 5788 5792 5796 5798 5800 5803 5804 5806 5809 5810 5812 5813 5814 5815 5816 5817 5819 5819 5819
5514 5520 5526 5532 5538 5544 5549 5554 5558 5563 5568 5572 5580 5591 5597 5598 5602 5608 5613 5617 5622 5627 5632 5635 5640 5644 5648 5654 5658 5662 5666 5669 5673 5678 5682 5687 5691 5697 5700 5704 5709 5712 5713 5717 5721 5724 5728 5731 5734 5737 5740 5742 5744 5746 5749 5751 5753 5756 5759 5762 5764 5765 5768 5771 5772 5773 5776 5778 5780 5784 5788 5790 5793 5797 5799 5801 5802 5804 5806 5808 5809 5810 5811 5812 5814 5815 5815 5816
5510 5515 5522 5528 5534 5539 5545 5550 5555 5560 5564 5569 5577 5585 5590 5594 5601 5607 5611 5616 5620 5624 5628 5633 5638 5643 5647 5652 5656 5659 5663 5666 5670 5674 5678 5683 5688 5693 5697 5701 5705 5708 5710 5713 5716 5720 5724 5727 5729 5733 5736 5738 5740 5742 5744 5747 5749 5752 5755 5757 5759 5761 5764 5767 5769 5771 5773 5774 5776 5779 5781 5784 5789 5794 5796 5797 5798 5799 5802 5804 5805 5806 5807 5808 5810 5811 5811 5812
5508 5513 5519 5525 5530 5536 5542 5547 5551 5555 5560 5569 5577 5581 5585 5592 5599 5603 5607 5613 5617 5621 5626 5631 5636 5641 5645 5649 5653 5657 5661 5664 5667 5671 5676 5680 5684 5688 5693 5697 5700 5704 5707 5709 5712 5716 5720 5722 5725 5729 5731 5733 5735 5738 5741 5744 5746 5749 5751 5753 5756 5758 5760 5762 5765 5767 5768 5770 5772 5774 5776 5780 5785 5789 5792 5793 5794 5796 5797 5798 5799 5801 5802 5804 5805 5807 5807 5808
5506 5511 5515 5521 5526 5531 5536 5541 5546 5552 5560 5568 5574 5577 5582 5588 5593 5597 5602 5608 5614 5619 5624 5630 5634 5638 5642 5645 5649 5654 5658 5660 5664 5669 5673 5677 5682 5685 5689 5692 5696 5700 5703 5705 5709 5712 5715 5718 5721 5723 5726 5729 5733 5736 5738 5741 5743 5745 5748 5750 5753 5755 5756 5758 5760 5762 5765 5766 5767 5769 5771 5775 5780 5784 5788 5790 5791 5792 5792 5792 5794 5796 5798 5799 5801 5802 5803 5803
5502 5508 5514 5519 5523 5528 5533 5538 5545 5552 5558 5562 5566 5572 5579 5584 5589 5593 5598 5604 5610 5615 5620 5626 5630 5634 5638 5641 5647 5652 5655 5658 5662 5666 5670 5675 5679 5682 5686 5690 5693 5697 5700 5702 5705 5708 5712 5715 5717 5719 5722 5726 5729 5731 5734 5736 5739 5741 5743 5746 5749 5750 5751 5754 5755 5759 5762 5762 5763 5764 5764 5770 5777 5780 5784 5787 5787 5787 5787 5788 5790 5792 5793 5795 5796 5797 5798 5798
5498 5505 5511 5516 5520 5525 5530 5536 5543 5547 5551 5557 5564 5570 5575 5579 5584 5589 5594 5601 5607 5611 5616 5621 5626 5630 5634 5637 5642 5647 5652 5656 5659 5664 5669 5671 5674 5679 5682 5686 5690 5693 5696 5699 5701 5705 5708 5710 5712 5715 5718 5721 5724 5727 5729 5732 5735 5737 5740 5743 5744 5746 5749 5750 5751 5754 5755 5756 5760 5760 5759 5767 5776 5778 5780 5782 5781 5781 5782 5784 5786 5787 5788 5789 5790 5791 5791 5792
5496 5502 5507 5512 5517 5522 5527 5532 5537 5541 5547 5554 5560 5565 5569 5576 5581 5586 5591 5598 5604 5608 5612 5617 5621 5626 5630 5633 5638 5643 5647 5651 5655 5660 5664 5666 5671 5676 5679 5682 5686 5689 5692 5696 5698 5701 5702 5703 5706 5710 5712 5715 5718 5721 5723 5727 5730 5732 5735 5738 5740 5742 5745 5745 5746 5748 5749 5752 5756 5755 5755 5766 5774 5774 5774 5775 5775 5776 5778 5779 5781 5782 5782 5783 5784 5784 5785 5786
5492 5496 5503 5508 5512 5517 5524 5530 5536 5540 5543 5547 5553 5560 5566 5572 5578 5583 5589 5596 5601 5605 5608 5613 5618 5623 5626 5629 5634 5639 5642 5646 5650 5655 5658 5661 5666 5670 5673 5677 5681 5684 5688 5692 5694 5696 5696 5697 5701 5704 5706 5709 5713 5716 5720 5724 5726 5728 5731 5735 5737 5739 5740 5742 5743 5743 5744 5748 5751 5751 5755 5764 5769 5768 5769 5769 5770 5771 5773 5774 5775 5776 5776 5777 5777 5777 5778 5779
5485 5487 5493 5501 5508 5515 5521 5527 5533 5537 5540 5545 5551 5557 5562 5568 5574 5579 5585 5591 5597 5601 5604 5608 5613 5618 5621 5625 5629 5634 5638 5642 5645 5649 5653 5657 5660 5664 5668 5671 5674 5678 5683 5685 5687 5689 5689 5691 5696 5699 5701 5706 5712 5715 5717 5720 5722 5724 5729 5733 5734 5735 5737 5739 5738 5737 5742 5745 5745 5747 5754 5759 5761 5762 5762 5764 5765 5766 5767 5768 5769 5769 5770 5770 5770 5771 5772 5773
5481 5484 5488 5495 5503 5511 5518 5523 5528 5533 5539 5545 5551 5555 5559 5565 5570 5574 5580 5586 5592 5597 5600 5604 5609 5613 5617 5621 5626 5631 5635 5638 5641 5645 5648 5652 5656 5659 5662 5665 5668 5673 5676 5678 5681 5682 5682 5685 5691 5694 5698 5704 5708 5707 5708 5712 5716 5718 5723 5725 5726 5729 5730 5731 5731 5734 5739 5739 5737 5743 5749 5750 5753 5757 5757 5758 5760 5760 5760 5762 5762 5763 5763 5764 5764 5765 5766 5768
5479 5485 5491 5495 5501 5507 5514 5520 5525 5530 5535 5541 5547 5553 5557 5561 5565 5570 5576 5583 5588 5592 5596 5599 5604 5610 5615 5620 5623 5627 5631 5633 5637 5641 5644 5648 5652 5654 5656 5660 5663 5666 5669 5671 5673 5676 5677 5681 5687 5689 5693 5698 5700 5698 5700 5706 5709 5711 5714 5716 5718 5721 5721 5723 5726 5731 5733 5731 5733 5742 5744 5743 5749 5753 5753 5753 5753 5753 5754 5756 5757 5757 5758 5759 5760 5761 5762 5763
5478 5484 5489 5495 5502 5508 5514 5519 5522 5525 5529 5535 5541 5547 5552 5558 5564 5569 5574 5579 5584 5588 5592 5596 5601 5607 5611 5615 5619 5622 5625 5630 5635 5638 5641 5645 5648 5650 5652 5655 5657 5660 5662 5664 5667 5670 5672 5677 5681 5683 5686 5691 5693 5692 5696 5700 5702 5705 5708 5710 5712 5714 5715 5718 5722 5727 5728 5727 5732 5740 5739 5738 5745 5749 5749 5749 5748 5748 5749 5750 5752 5753 5754 5755 5756 5756 5757 5757
5477 5482 5487 5493 5499 5506 5512 5516 5518 5522 5525 5530 5535 5541 5547 5553 5560 5566 5571 5576 5580 5585 5590 5594 5600 5604 5608 5611 5614 5617 5623 5629 5634 5636 5639 5642 5644 5647 5649 5651 5654 5656 5657 5659 5662 5665 5669 5673 5676 5677 5680 5684 5686 5688 5692 5694 5695 5698 5701 5704 5706 5708 5711 5714 5718 5722 5723 5722 5728 5734 5731 5734 5742 5745 5745 5745 5744 5743 5744 5745 5747 5749 5749 5750 5750 5750 5751 5751
5476 5481 5487 5491 5495 5500 5506 5511 5517 5520 5522 5526 5531 5537 5542 5548 5554 5560 5566 5572 5577 5583 5588 5593 5597 5600 5603 5606 5610 5616 5622 5626 5629 5633 5637 5639 5642 5645 5646 5648 5651 5653 5655 5657 5659 5663 5666 5669 5672 5673 5674 5678 5683 5685 5686 5688 5689 5689 5692 5697 5703 5705 5708 5711 5714 5718 5718 5718 5723 5725 5724 5732 5741 5741 5740 5741 5739 5738 5739 5741 5742 5742 5742 5742 5743 5742 5743 5744
5474 5478 5483 5487 5491 5496 5501 5506 5511 5515 5519 5525 5531 5535 5539 5545 5550 5555 5559 5565 5571 5577 5583 5588 5591 5595 5598 5602 5608 5614 5618 5621 5624 5628 5631 5633 5636 5638 5639 5642 5645 5647 5650 5653 5655 5659 5663 5665 5667 5668 5669 5675 5680 5679 5681 5682 5678 5678 5687 5698 5702 5704 5705 5706 5708 5711 5712 5713 5715 5717 5722 5732 5737 5733 5733 5734 5733 5732 5733 5734 5734 5735 5735 5735 5735 5735 5736 5737